Regional Weather Roundup
Issued by NWS

Home | Current Version | Previous Version | Graphics & Text | Print | Product List | Glossary On
Versions: 1 2 3 4 5 6 7 8 9 10 11 12 13 14 15 16 17 18 19 20 21 22 23 24 25 26 27 28 29 30 31 32 33 34 35 36 37 38 39 40 41 42 43 44 45 46 47 48 49 50
000
ASUS44 KMEG 220100
RWRTN
TENNESSEE HOURLY STATE WEATHER ROUNDUP
NATIONAL WEATHER SERVICE MEMPHIS TN
700 PM CST FRI NOV 21 2014

TNZ002-004-019-021-049-052-054-088>092-220200-
WEST TENNESSEE

CITY           SKY/WX    TMP DP  RH WIND       PRES   REMARKS
MEMPHIS INTL   LGT RAIN  52  41  66 E6        30.29S
NWS MEMPHIS      N/A     51 N/A N/A MISG        N/A
JACKSON        MOCLDY    45  36  70 CALM      30.32S
DYERSBURG      CLOUDY    46  30  53 E5        30.33S
UNION CITY     CLOUDY    45  36  70 CALM      30.31F
PARIS          CLOUDY    46  28  49 E6        30.34S
LEXINGTON      CLEAR     50  34  53 CALM      30.32S
SAVANNAH       MOCLDY    54  37  54 CALM      30.33S
$$

TNZ008-025-027-028-033-062-065-066-220200-
NORTH MIDDLE TENNESSEE

CITY           SKY/WX    TMP DP  RH WIND       PRES   REMARKS
NASHVILLE      MOCLDY    46  24  42 NE5       30.37S
CLARKSVILLE    CLOUDY    47  22  37 SE7       30.36S
COOKEVILLE     CLEAR     30  25  80 CALM      30.38S
CROSSVILLE     CLEAR     39  16  39 CALM      30.40R
$$

TNZ061-075-076-078-094-096-097-220200-
SOUTH MIDDLE TENNESSEE

CITY           SKY/WX    TMP DP  RH WIND       PRES   REMARKS
FAYETTEVILLE   CLEAR     45  34  65 MISG      30.36S
TULLAHOMA      CLEAR     46  27  46 CALM      30.38S
WINCHESTER     CLEAR     45  28  53 SE8       30.38S
SHELBYVILLE    CLEAR     45  30  57 E6        30.38S
$$

TNZ017-018-042-046-047-220200-
NORTHEAST TENNESSEE

CITY           SKY/WX    TMP DP  RH WIND       PRES   REMARKS
TRI CITIES     CLEAR     29  16  58 CALM      30.44S
ELIZABETHTON   CLEAR     27  16  63 CALM      30.44R
$$

TNZ012-013-036-069-073-074-220200-
CENTRAL EAST TENNESSEE

CITY           SKY/WX    TMP DP  RH WIND       PRES   REMARKS
KNOXVILLE      PTCLDY    39  14  36 N6        30.41S WCI  35
OAK RIDGE      CLEAR     36  20  52 CALM      30.43S
GATLINBURG     CLEAR     32  19  59 CALM      30.41F
$$

TNZ083-085-099-220200-
SOUTHEAST TENNESSEE

CITY           SKY/WX    TMP DP  RH WIND       PRES   REMARKS
CHATTANOOGA    PTCLDY    42  30  62 CALM      30.42R
$$

SKY/WX REPORTED AS FAIR MEANS FEW OR NO CLOUDS BELOW
12 THOUSAND FEET.



USA.gov is the U.S. government's official web portal to all federal, state and local government web resources and services.